GFSMA_con_mlcape_132.txt.gz
CAPE
1366 1278 1269 1100 1137 1161 1289 1459 1434 1470 1127 582 553 585 136 105 21 70 117 0 92 287 509 724 905 1083 1192 1253 1354 1534 1817 1943 1878 1914 1744 1377 1129 984 951 976 961 1139 1218
1448 1225 1148 1073 1331 1554 1620 1646 1766 1304 562 331 538 391 230 225 164 206 320 236 0 32 185 312 453 554 698 887 1119 1609 1913 1985 1757 1829 1282 1107 1112 920 784 846 739 792 934
1578 1391 1304 1166 1422 1726 2051 1786 1527 1148 425 241 529 567 479 341 234 296 351 393 444 123 5 73 236 335 487 782 1159 1664 1995 2137 1682 1610 1113 1025 1044 951 767 695 664 790 1050
1717 1745 1049 1184 1691 1767 1732 1681 959 661 544 232 368 348 503 565 880 864 671 687 720 770 618 484 330 411 627 920 1594 1846 1999 1929 1474 1324 1017 1017 1094 1180 1189 831 742 927 888
1943 1501 1258 1447 2080 1777 1808 1258 916 628 563 255 242 401 522 561 688 534 936 1188 1072 1106 1255 1148 1013 984 1006 963 1173 1576 1382 1151 1174 1025 918 941 955 1171 1270 1120 810 844 727
1907 1937 1290 1505 1964 1798 1863 1565 1230 1008 673 368 78 279 525 693 770 729 821 988 1207 1446 1391 1744 2015 2059 1698 864 1050 961 1230 1174 1110 1124 1263 1346 1278 1150 1276 1198 853 871 618
1439 2092 1168 1302 1840 1728 2611 2219 1652 1659 1060 1460 501 385 568 815 780 897 1047 1091 1257 1329 1480 1675 2111 2692 2412 1223 1260 872 964 1029 1313 1472 1593 1514 1440 1273 1153 1150 894 866 523
1428 1582 1687 1019 1843 1677 2589 2541 2427 1122 1237 1644 849 415 241 490 509 598 1064 1216 1520 1370 1180 1308 1806 2913 2384 2121 1186 1215 749 830 1070 1373 1207 951 876 955 788 833 883 761 432
1493 1781 1762 1297 1663 1724 1607 2299 2198 2028 1076 1612 2184 1383 322 230 660 964 1237 1173 1460 1075 1202 1166 1135 1788 2028 1525 1494 1400 727 714 1048 1108 1255 1292 1079 875 783 849 875 663 386
1721 1578 1628 1172 1495 1362 1892 2002 1622 2308 1950 1260 1269 1223 1616 1311 604 628 1008 1016 943 791 905 866 756 1150 1369 1212 1198 1253 769 750 882 948 982 1029 1074 1117 1448 1451 1115 553 270
1481 1481 1676 1263 1060 860 1983 2284 1834 2342 1834 1383 1253 1226 1443 1113 1342 731 373 712 816 895 847 694 1015 1110 1344 1227 950 1178 770 766 743 635 505 498 512 619 813 1434 1086 419 263
926 1069 1473 1624 1284 654 1688 1858 1754 2178 2585 2166 1494 1407 1088 1084 956 814 788 941 792 355 799 1003 1369 1177 1028 794 1376 938 544 464 332 239 179 165 192 253 378 1129 772 387 471
493 925 1310 1350 1203 1126 1297 1871 2268 1579 1163 2045 2415 1356 1256 1246 1201 1055 754 879 782 579 976 872 1057 1076 993 928 1402 1241 719 179 41 1 0 10 48 221 394 266 136 107 127
666 839 1385 1197 1396 1551 971 1601 1473 1164 1249 1389 1982 2229 1370 1215 1223 1078 982 749 703 574 801 1023 617 787 1113 1449 993 1289 720 0 0 0 0 0 0 0 0 0 0 0 0
795 1144 1139 1221 1258 1463 1173 1157 968 1372 1437 1524 1273 1682 1425 1304 980 1032 1063 972 909 511 308 1061 231 1449 1161 1054 620 1564 0 0 0 0 0 0 0 0 0 0 0 0 0
829 1041 1004 1109 1112 1225 1389 1166 897 1407 1562 1014 902 1046 1543 864 1020 751 590 489 431 296 15 17 188 902 1571 765 939 1306 0 0 0 0 0 0 0 0 0 0 0 0 0
841 782 809 777 951 1098 1324 1404 1162 916 1282 1211 1197 1125 1334 1328 662 429 425 397 428 364 168 124 578 947 1043 1360 1217 1191 321 0 0 0 0 0 0 0 0 0 0 0 0
501 778 712 638 718 882 1044 1259 1184 958 944 1075 1088 1058 1020 973 1261 1083 627 606 552 762 429 201 675 473 929 883 1174 943 150 0 0 0 0 0 0 0 0 0 0 0 0
1140 1052 918 1146 924 987 948 1111 1090 1083 1022 1024 833 901 844 795 989 833 824 719 579 666 978 961 378 689 698 624 1236 550 12 0 0 0 0 0 0 0 0 0 0 0 0
1117 1164 1331 1306 1331 1133 1260 1229 1172 1172 943 899 948 1011 974 953 944 1136 982 867 601 701 578 615 519 445 792 863 772 650 0 2 4 0 0 0 0 0 0 0 0 0 0
1157 1391 1238 1114 1136 1095 887 1055 1263 1166 950 900 926 1011 960 748 429 576 743 694 812 643 641 393 590 501 694 357 471 641 247 0 0 0 1 0 0 0 0 0 0 0 0
1191 1295 1263 1036 1066 871 345 334 521 846 1068 802 766 893 954 364 159 55 77 114 198 481 179 159 97 346 617 433 409 494 386 413 7 0 0 0 0 0 0 0 0 0 0
1010 1005 1069 1031 793 1012 286 150 50 437 792 921 847 763 951 612 301 105 4 6 0 5 83 439 126 215 190 188 341 90 74 0 0 0 0 0 0 0 0 0 0 0 0
914 876 774 964 998 1080 147 0 0 169 747 1010 1036 1125 854 498 175 145 38 1 0 0 0 38 127 0 0 0 97 10 32 0 0 0 0 0 0 0 0 0 0 0 0
758 835 753 728 606 523 0 0 0 48 478 580 493 482 240 170 8 0 0 0 0 0 0 0 0 0 0 0 0 0 4 3 4 0 0 0 0 0 0 0 0 0 0
59 5 0 4 0 32 0 0 0 78 126 47 1 0 0 0 0 0 0 0 0 0 0 0 0 0 0 0 0 0 0 0 0 0 0 0 0 0 0 0 0 0 0

GFSMA_con_mlcape_135.txt.gz
CAPE
816 960 740 1196 847 542 590 762 875 1037 600 564 588 122 21 16 61 106 70 4 130 208 384 541 641 803 1066 1277 1401 1655 2076 2277 2261 1940 1725 1113 1046 974 820 837 927 938 1007
1480 803 875 886 804 857 994 1081 1648 877 367 396 392 167 180 187 257 334 314 117 58 126 260 421 627 856 856 1076 1452 1721 2009 2253 2117 1745 1378 1059 1096 1094 1005 814 791 839 1041
1599 1018 894 971 938 1163 1425 1192 1325 732 331 185 331 376 224 245 443 587 511 593 423 265 268 350 386 443 689 1065 1466 1824 1993 1895 1782 1447 1240 1118 1127 1189 1231 1129 747 725 838
1491 1697 837 979 1041 1159 961 990 888 523 266 132 279 300 296 408 628 624 464 648 668 869 762 680 807 776 857 1073 1230 1698 1310 1391 1302 1340 1237 1174 1141 1081 1214 1272 892 733 662
1888 2312 1038 1214 1913 831 911 902 725 545 274 75 228 280 325 366 573 469 638 926 1012 1182 1416 1033 1343 1510 1493 940 1237 991 1259 1343 1205 1265 1522 1681 1660 1514 1275 1350 1069 881 687
1569 2069 1078 1287 2470 1695 914 1790 727 762 305 141 77 217 326 399 451 484 660 758 1137 1389 1323 1660 2325 2199 1912 669 976 976 1046 1103 1424 1565 1558 1367 1326 1538 1452 1118 1018 787 554
1813 2166 1227 1368 1302 1517 2308 1552 1369 1287 555 654 385 230 373 466 372 384 550 635 1037 1081 1143 1640 1917 2631 2243 1579 853 829 907 967 1191 1506 1484 1159 934 904 1078 967 978 647 396
1435 1348 1977 1151 1596 1799 2384 2257 2206 1427 772 563 1302 166 160 196 194 305 518 645 1156 1130 1208 1371 1474 2378 2131 2325 1418 1370 952 788 1224 1316 1376 1323 1219 1176 1286 1094 960 586 325
1323 1608 1654 1856 1648 1542 1632 2181 2154 2174 1682 668 1390 1358 773 860 381 364 699 639 1078 941 1094 982 1108 1482 1679 1761 1789 1764 936 799 1101 1188 1053 911 833 838 1140 1601 1056 459 410
1267 1288 1484 1358 1449 1568 889 1871 1651 2285 1663 1571 560 312 1140 990 817 265 636 672 833 861 985 824 871 1292 1397 1305 1685 843 766 722 687 609 553 464 443 529 847 1503 891 398 505
1326 1194 1487 1431 1361 796 1835 2175 2036 2228 1946 1560 806 901 986 476 620 448 248 468 484 890 759 642 948 1001 799 1497 1256 1086 535 324 210 143 161 250 403 425 1030 1261 650 449 352
990 1260 1468 1641 1579 754 1562 1652 2022 1954 2853 2424 1933 1159 762 736 872 606 485 567 536 459 717 915 1023 813 724 1553 1353 782 201 9 0 4 9 56 430 1004 1037 668 422 397 184
415 1131 1289 1518 1413 1542 1261 1578 2130 1948 1636 2123 2436 1792 1025 986 916 854 625 456 445 715 573 557 799 808 606 339 1188 579 0 0 0 0 0 0 0 0 0 1 8 11 4
416 1519 1683 1124 1180 1597 1326 1369 1613 1247 1183 1382 1984 2307 1599 953 938 937 839 735 508 437 34 27 759 307 513 905 725 491 0 0 0 0 0 0 0 0 0 0 0 0 0
857 1149 1147 1123 1205 1238 1405 1196 1173 1032 938 1756 1136 1679 1664 1062 782 648 713 611 515 331 284 1064 351 1051 844 1050 1379 36 0 0 0 0 0 0 0 0 0 0 0 0 0
780 1190 1123 1380 1321 1150 1382 1320 982 878 997 840 549 783 1275 1155 917 634 503 439 374 227 58 0 2 928 1168 193 1156 101 0 0 0 0 0 0 0 0 0 0 0 0 0
1107 1013 1175 1243 1066 1163 1254 1204 1206 1275 1177 1328 1109 1136 1332 1150 822 606 505 228 73 40 63 82 260 1777 1394 1119 1173 257 0 0 0 0 0 0 0 0 0 0 0 0 0
1075 1086 1197 1260 1195 1032 1093 1377 1279 752 900 1065 1010 997 1014 695 1142 1208 304 249 125 472 719 523 322 589 1052 1338 1080 888 59 0 0 0 0 0 0 0 0 0 0 0 0
1341 772 1181 1262 1158 1113 1156 1200 1261 1243 1260 1070 908 1016 972 837 963 631 1022 1040 815 823 691 627 689 559 706 769 1164 967 46 0 0 0 0 0 0 0 0 0 0 0 0
1401 1344 1205 1399 1431 1334 1069 1157 1298 1309 1172 938 844 886 841 619 891 1036 1212 1026 1033 789 807 820 689 644 375 714 755 754 161 42 0 0 0 0 0 0 0 0 0 0 0
1298 1406 1304 1300 1271 1242 1182 1140 1225 1247 1041 1166 1167 1063 985 909 482 682 958 890 812 770 519 420 583 354 487 222 270 235 369 26 12 4 0 0 0 0 0 0 0 0 0
1271 1270 1205 1177 1134 1128 424 530 687 1106 1248 901 965 1098 1261 596 437 193 182 100 217 924 602 309 195 215 173 226 292 456 600 121 5 0 0 3 0 0 0 0 0 0 0
1072 910 992 992 1093 1234 356 217 237 468 512 717 988 883 932 1083 784 894 4 0 0 10 72 571 655 228 337 322 316 112 130 160 29 0 0 0 0 0 0 0 0 0 0
1190 603 1213 1008 770 816 234 194 108 350 740 772 822 906 1111 1062 799 716 251 181 0 0 0 11 202 115 117 53 231 193 172 0 0 0 0 0 0 0 0 0 0 0 0
928 734 377 645 815 713 59 49 18 199 336 553 608 716 388 782 385 80 279 3 0 0 0 0 0 0 0 0 0 0 10 16 64 0 0 0 0 0 0 0 0 0 0
955 688 544 471 54 63 0 0 0 32 234 452 305 154 0 0 0 0 37 0 0 0 0 0 0 0 0 0 0 0 0 0 0 0 0 0 0 0 0 0 0 0 0

GFSMA_con_mlcape_138.txt.gz
CAPE
905 708 1003 605 808 318 1029 759 1265 601 577 510 147 25 0 25 21 2 4 64 213 292 416 602 775 1103 1315 1240 1372 1805 2016 2050 1807 1589 1294 1006 1074 1086 1051 951 868 858 948
980 656 984 331 645 1602 1088 1312 1072 1188 776 401 199 85 64 139 319 135 63 68 172 228 309 477 595 770 828 1014 1349 1751 1759 1631 1677 1494 1375 1076 1109 1229 1309 1339 1068 969 885
965 2073 711 951 1398 767 630 586 1062 623 140 230 194 187 183 257 457 575 305 174 146 222 260 456 673 584 565 783 1185 1694 1478 1431 1420 1361 1366 1229 1241 1213 1181 1376 1242 936 724
1452 478 296 474 944 429 998 1164 890 793 0 83 328 152 148 365 501 509 514 686 675 610 407 579 820 972 1048 884 1214 1064 1216 1289 1320 1561 1786 1894 1896 1828 1612 1396 1265 881 670
1428 1848 1598 1758 1116 2030 702 1448 987 519 47 151 232 176 317 441 554 529 569 661 907 1048 1130 1066 1098 1160 1190 888 794 601 804 1053 1381 1664 1803 1510 1270 1317 1558 1294 1025 752 566
1413 1408 1409 1712 817 1353 1369 1011 1711 1304 338 139 214 119 242 301 437 564 450 631 1209 1135 1655 1847 1899 1684 1128 956 557 660 740 841 1238 1524 1600 1465 1377 1167 933 960 869 722 447
1637 1405 1991 795 0 4 392 1556 979 850 1130 528 852 147 344 415 349 370 343 505 1012 992 1076 1430 2554 2489 1708 1232 1005 1153 889 913 1237 1405 1237 1019 992 1153 1291 1074 812 479 451
1515 1396 1737 1160 7 2 436 1861 2461 1652 1667 389 756 1665 426 355 350 248 237 361 931 647 1129 1372 2218 1520 2108 1145 1029 1056 870 852 1096 1100 932 763 687 861 1363 1321 710 271 409
1431 1640 1753 1777 763 582 351 1928 2361 702 456 1067 740 1071 1450 250 31 72 0 0 116 960 818 831 1091 1532 2091 1762 1478 800 524 452 476 481 465 547 578 591 1255 1245 391 367 220
1108 1552 1541 1640 787 0 1 740 1559 0 0 1106 1253 552 444 1 0 0 0 0 0 31 808 536 1014 1149 1633 1392 904 550 260 142 138 203 391 876 1125 1277 1596 754 474 374 213
938 1237 1366 1506 1525 457 29 1001 1982 1687 1622 1215 2072 1272 983 924 513 63 56 0 13 37 611 753 666 1349 1575 1424 632 275 112 5 7 17 60 453 1076 1339 1148 1007 680 301 144
927 1102 1454 1503 1591 1301 1210 1555 2001 1156 1898 1635 1337 2163 1228 979 848 834 785 352 245 273 1 5 0 572 1295 762 221 31 0 0 0 0 0 0 0 22 63 107 122 86 67
612 925 1144 1540 1617 1522 1101 1632 1782 1606 1630 1630 2393 2143 2359 999 864 803 708 955 865 105 10 0 0 184 902 849 0 0 0 0 0 0 0 0 0 0 0 0 0 3 3
559 1436 1140 1415 1174 1598 1433 1243 1505 1763 1488 1337 1653 2356 1784 1693 980 630 904 578 686 545 107 97 57 0 967 381 0 0 0 0 0 0 0 0 0 0 0 0 0 2 4
1236 1443 1374 1148 1322 874 1378 1341 1250 1132 1387 1656 1684 1639 1456 652 1173 1095 757 666 747 554 423 338 370 708 868 607 44 0 0 0 0 0 0 0 0 0 0 0 0 0 0
843 528 938 1019 834 1156 1181 1239 964 1102 986 946 691 753 1035 1236 1124 1125 1017 615 430 298 162 10 922 1431 1255 731 0 0 0 0 0 0 0 0 0 0 0 0 0 0 0
1242 1335 839 303 1222 1177 1285 1243 1006 1128 882 953 957 896 689 1288 929 440 552 417 447 455 602 1045 765 1555 1102 827 0 0 0 0 0 0 0 0 0 0 0 0 0 0 0
1082 1278 1049 951 1064 1276 1078 1201 1205 1021 843 650 705 1063 1084 970 1047 934 860 539 360 47 259 132 230 764 1001 1151 354 50 0 0 0 0 0 0 0 0 0 0 0 0 0
1143 1310 1398 1289 1159 1309 1097 1170 1061 1070 1195 1035 806 709 720 929 877 904 707 486 895 958 519 648 696 542 532 657 401 442 0 0 0 0 0 0 0 0 0 0 0 0 0
794 951 1229 1460 1519 1468 1208 1098 1147 1063 955 812 856 918 961 747 451 628 480 705 856 604 648 686 659 397 443 242 78 132 0 0 0 0 0 0 0 0 0 0 0 0 0
979 1075 917 897 1149 1047 1008 1084 985 1192 1116 828 857 934 921 913 525 511 633 805 606 353 599 386 273 198 225 334 334 248 119 67 0 0 0 0 0 0 0 0 0 0 0
974 1087 1126 1269 1044 882 637 539 1065 626 697 659 618 682 815 567 384 234 197 184 249 315 541 446 127 337 196 221 239 217 159 62 11 0 0 0 0 0 0 0 0 0 0
872 985 1087 708 830 1243 598 471 364 617 765 824 840 805 856 918 606 500 101 25 3 0 3 136 287 260 288 400 255 87 93 84 55 0 0 0 0 0 0 0 0 0 0
1007 806 435 421 475 758 317 237 296 577 502 553 636 721 898 1012 1028 788 335 118 0 0 0 0 17 0 0 0 34 136 109 0 0 0 0 0 0 0 0 0 0 0 0
1170 1197 1102 526 460 296 45 17 90 649 458 323 457 51 155 323 387 194 355 28 0 0 0 0 0 0 0 0 0 0 3 0 0 0 0 0 0 0 0 0 0 0 0
685 1092 989 804 210 24 0 0 10 64 60 198 468 0 0 0 0 0 98 12 0 0 0 0 0 0 0 0 0 0 0 0 0 0 0 0 0 0 0 0 0 0 0

GFSMA_con_mlcape_141.txt.gz
CAPE
476 442 526 915 952 935 1040 698 754 850 521 488 568 362 0 0 0 0 15 194 301 483 719 862 933 1036 1235 1275 1428 1770 1724 1578 1256 1252 1263 1036 1020 1136 1211 1173 885 785 742
801 1037 922 239 734 908 1195 801 732 824 436 251 39 0 10 22 0 13 13 174 253 317 412 622 789 893 1038 943 1393 1740 1414 1305 1275 1400 1415 1335 1243 1182 1173 1308 1096 894 760
782 1041 797 757 1292 1015 1062 868 836 1238 394 150 115 52 59 195 159 65 48 61 172 335 344 474 766 969 986 887 1464 1221 1317 1309 1418 1661 1828 1891 1905 1871 1583 1351 1276 885 800
1637 616 1051 512 638 1493 1462 885 910 814 134 55 86 200 84 199 265 367 282 241 207 131 297 441 641 1005 1206 935 1083 911 986 1219 1385 1573 1512 1341 1304 1422 1649 1345 1068 789 512
1281 1120 789 499 1131 1029 948 1036 954 891 88 101 167 168 123 212 90 297 378 336 465 519 580 884 652 1068 1389 1405 1155 1283 1034 1074 1355 1437 1484 1393 1340 1176 1014 922 763 584 545
991 734 410 48 404 126 288 214 1138 800 171 290 246 192 225 237 224 345 169 334 400 724 979 1192 1118 1078 225 8 599 1650 1147 1178 1384 1428 1312 1142 1083 1145 1068 895 626 347 538
1240 406 603 0 26 69 13 364 850 1680 878 519 582 141 278 267 32 0 0 0 50 283 1334 1894 1896 1084 837 116 33 1194 1191 1318 1220 1076 877 727 708 1005 1381 830 346 389 263
1177 1282 543 8 0 0 323 277 1471 1673 1158 971 453 1242 425 324 43 193 0 0 0 56 400 688 1895 1410 631 17 1031 802 573 586 645 771 965 923 660 1084 1307 478 259 237 215
1307 1485 954 403 110 36 480 213 851 688 421 440 1488 686 801 202 0 90 0 0 0 0 66 209 1433 1201 1140 1096 808 370 160 151 339 787 1532 1711 1507 1418 570 329 253 201 199
1305 1572 1125 645 93 0 21 314 756 0 10 822 1184 1078 336 0 23 0 0 0 0 0 0 97 260 1055 1134 604 503 126 14 4 57 256 882 1379 1422 1196 955 644 325 171 127
743 927 1162 643 441 0 0 0 1149 1259 705 604 1119 1046 435 66 91 0 0 34 2 0 0 0 47 1111 1202 321 29 0 0 0 0 0 25 101 335 466 412 261 150 95 49
431 1190 1243 1105 1017 825 722 844 1531 1599 796 0 1230 1601 1533 1105 270 63 79 78 103 42 2 0 171 863 585 75 0 0 0 0 0 0 0 0 0 8 18 22 17 3 2
576 714 1266 1140 1314 1347 1095 1213 1401 1598 1813 1387 1324 1391 1552 1659 1513 802 614 630 266 139 7 0 0 292 602 2 0 0 0 0 0 0 0 0 0 0 0 0 1 1 2
581 606 812 1257 1322 1542 1378 969 1458 1276 1477 1401 1179 1975 1187 819 1027 1178 878 555 415 376 92 125 43 2 515 0 0 0 0 0 0 0 0 0 0 0 0 0 0 0 0
667 598 1261 1216 1137 1077 1533 1165 827 911 1086 1045 1454 1280 1140 1345 1624 968 899 610 650 300 208 180 409 24 665 0 0 0 0 0 0 0 0 0 0 0 0 0 0 0 0
987 1296 666 909 1170 1106 1086 1388 1056 1019 1061 970 1059 929 847 602 1158 685 400 347 331 346 115 623 391 909 321 0 0 0 0 0 0 0 0 0 0 0 0 0 0 0 0
972 705 760 623 901 1085 1149 1119 1101 953 1057 881 1002 548 802 772 956 593 417 497 599 310 128 584 1007 861 138 0 0 0 0 0 0 0 0 0 0 0 0 0 0 0 0
683 1181 886 510 161 781 927 837 1072 875 885 821 517 465 646 1035 952 781 429 935 608 493 524 340 381 526 338 0 0 0 0 0 0 0 0 0 0 0 0 0 0 0 0
858 994 993 676 705 856 1020 1055 1261 1203 990 1048 842 816 881 660 429 653 505 453 698 484 511 470 307 349 331 1 0 0 0 0 0 0 0 0 0 0 0 0 0 0 0
733 806 732 1088 1194 1012 862 1001 1048 1017 972 948 966 802 609 817 715 846 452 414 371 416 539 428 247 190 167 99 0 0 0 0 0 0 0 0 0 0 0 0 0 0 0
787 785 619 838 1220 1326 1235 984 1095 1151 1032 975 809 745 839 618 546 565 713 487 453 481 248 294 250 168 81 131 135 2 0 0 0 0 0 0 0 0 0 0 0 0 0
625 760 732 824 677 779 853 667 635 806 824 798 669 592 533 522 253 208 250 253 554 603 403 228 135 117 84 94 124 142 91 2 0 0 0 0 0 0 0 0 0 0 0
875 922 860 835 887 1204 883 667 463 623 879 602 670 674 573 692 782 377 114 83 0 0 4 97 141 188 254 203 152 133 93 40 8 0 0 0 0 0 0 0 0 0 0
537 506 630 620 575 496 367 285 271 325 478 437 511 497 619 669 674 872 310 72 0 0 0 0 0 0 0 0 12 55 93 2 0 0 0 0 0 0 0 0 0 0 0
393 407 363 336 335 173 21 25 94 196 291 315 196 0 32 88 41 220 294 2 0 0 0 0 0 0 0 0 0 0 0 0 0 0 0 0 0 0 0 0 0 0 0
215 221 81 30 29 0 0 0 0 39 65 22 0 0 0 0 0 7 84 0 0 0 0 0 0 0 0 0 0 0 0 0 0 0 0 0 0 0 0 0 0 0 0

GFSMA_con_mlcape_144.txt.gz
CAPE
227 143 116 294 579 569 642 813 876 850 958 774 633 879 511 0 0 10 58 253 385 656 1070 1483 1673 1653 1612 1542 1483 1913 1324 1172 1261 1317 1358 1198 1116 1129 1207 1300 1122 888 779
518 852 383 469 378 515 686 843 759 632 253 107 19 32 282 0 2 13 53 133 415 503 614 823 1086 1442 1473 1316 1699 1633 1399 1212 1454 1673 1778 1832 1748 1562 1338 1228 1233 825 768
989 1015 661 346 604 1107 1083 866 619 821 770 140 92 46 11 7 21 21 35 45 90 341 470 653 720 1081 1229 1085 1508 1271 1520 1498 1630 1708 1456 1345 1348 1601 1688 1324 1249 913 674
857 792 524 779 1303 1062 988 949 1063 772 183 50 65 79 30 82 196 106 59 42 36 87 243 451 669 957 1153 1368 977 1218 1350 1607 1505 1547 1446 1467 1404 1230 1446 1239 889 662 857
1063 445 441 484 868 542 474 461 870 992 496 41 43 84 56 91 99 173 221 336 408 456 457 601 596 1082 1117 883 863 1658 1296 1554 1638 1354 1211 1082 1123 1321 1065 971 677 607 657
842 565 308 375 337 152 347 462 911 896 301 40 135 167 111 97 28 4 10 69 163 583 979 900 836 1241 614 626 842 1210 1461 1377 1413 1103 804 691 785 1421 1070 670 441 448 322
311 145 303 41 24 9 396 475 1215 1613 1283 774 266 217 119 67 0 0 0 0 176 511 827 1061 1083 614 521 617 133 965 983 1134 1155 1208 1156 800 742 1482 814 360 349 309 202
360 897 464 0 0 119 435 634 586 1039 595 1048 796 977 274 181 0 0 0 0 38 317 722 458 1129 806 664 0 1060 519 386 849 1302 1764 1577 1254 1553 853 366 240 231 225 190
1312 1212 494 129 0 255 429 659 624 224 362 886 1282 598 387 215 0 0 0 0 0 28 341 936 1160 698 164 877 500 203 179 415 789 1390 1489 1036 670 438 306 220 127 113 115
1131 1147 883 309 26 7 254 714 472 42 342 701 1131 202 24 0 0 0 0 23 14 0 0 148 387 437 1023 579 300 20 58 139 259 550 954 1007 856 654 440 262 122 58 42
1105 1138 897 460 182 0 0 0 960 830 408 458 938 818 2 12 0 6 0 60 135 10 0 14 130 514 573 332 0 0 0 0 6 16 64 195 318 356 301 199 69 17 11
797 783 981 623 523 85 67 0 955 1249 657 0 467 1049 1081 646 347 197 92 131 155 153 89 9 28 206 620 84 0 0 0 0 0 0 0 0 1 1 5 5 5 4 4
533 521 1018 910 824 788 970 999 1061 1423 1186 1021 857 918 1251 1071 734 361 475 291 193 125 48 0 0 399 199 20 0 0 0 0 0 0 0 0 0 0 0 0 1 2 3
438 440 883 949 969 1076 862 706 1184 958 1141 1150 1050 1101 1188 998 1020 719 585 388 376 273 104 17 0 202 22 0 0 0 0 0 0 0 0 0 0 0 0 0 0 0 1
531 569 455 618 997 1021 1103 772 586 479 860 848 844 1164 963 854 825 768 492 320 400 138 174 102 193 0 0 0 0 0 0 0 0 0 0 0 0 0 0 0 0 0 0
784 753 589 692 758 898 824 1150 1020 661 876 746 776 895 739 561 618 640 216 156 198 300 195 303 218 193 26 0 0 0 0 0 0 0 0 0 0 0 0 0 0 0 0
928 838 947 978 810 861 995 1064 1020 887 707 677 808 807 492 630 600 792 559 511 620 331 175 535 697 428 7 0 0 0 0 0 0 0 0 0 0 0 0 0 0 0 0
871 880 774 604 623 928 915 957 966 841 774 544 499 390 509 459 772 838 583 466 463 408 243 217 321 314 87 0 0 0 0 0 0 0 0 0 0 0 0 0 0 0 0
315 1015 811 703 493 394 667 780 782 770 835 780 852 681 494 572 623 565 523 583 427 456 350 273 269 247 130 0 0 0 0 0 0 0 0 0 0 0 0 0 0 0 0
498 481 918 749 679 494 700 785 1034 1064 945 981 789 803 778 628 464 516 577 575 440 384 312 335 249 100 105 0 0 0 0 0 0 0 0 0 0 0 0 0 0 0 0
544 646 657 764 779 989 978 904 843 925 876 778 799 937 808 753 673 561 449 361 437 348 287 261 142 144 92 67 19 0 0 0 0 0 0 0 0 0 0 0 0 0 0
664 592 635 682 567 910 1173 998 935 844 854 832 726 625 755 686 436 369 329 273 444 418 260 232 195 146 98 76 119 50 0 0 0 0 0 0 0 0 0 0 0 0 0
538 571 620 647 642 709 659 690 737 600 564 542 766 657 504 643 568 268 106 37 0 0 42 153 227 194 141 143 87 101 21 0 0 0 0 0 0 0 0 0 0 0 0
517 517 473 655 694 739 572 520 454 430 506 587 706 757 708 611 425 281 47 1 0 0 0 0 0 0 0 0 2 37 56 22 0 0 0 0 0 0 0 0 0 0 0
375 415 575 627 491 149 37 63 136 261 326 353 256 111 225 222 70 253 162 0 0 0 0 0 0 0 0 0 0 0 0 0 0 0 0 0 0 0 0 0 0 0 0
281 151 120 142 76 4 0 0 21 84 132 77 0 0 0 1 5 69 45 0 0 0 0 0 0 0 0 0 0 0 0 0 0 0 0 0 0 0 0 0 0 0 0

GFSMA_con_mlcape_147.txt.gz
CAPE
460 137 74 99 284 444 464 529 630 668 646 618 615 593 824 170 0 0 0 81 444 619 1131 1674 1952 2001 1972 1823 1660 1683 1343 1276 1329 1399 1556 1579 1446 1282 1246 1331 1267 1081 1212
402 541 413 282 390 574 554 571 678 521 363 117 22 127 413 55 0 0 0 0 136 649 847 1048 1326 1531 1709 1537 1545 1584 1399 1524 1742 1798 1641 1467 1510 1588 1550 1477 1335 983 863
963 708 681 440 658 1030 834 698 485 682 624 147 36 26 142 13 0 0 0 0 0 38 135 501 1163 1310 1477 1222 1428 1447 1633 1446 1649 1689 1538 1409 1280 1216 1620 1427 1093 832 782
1070 711 683 840 1033 840 812 743 728 653 219 25 20 19 14 0 5 11 53 138 197 166 282 447 664 770 1384 1774 1300 1430 1261 1452 1424 1536 1371 1337 1282 1172 1153 1040 768 667 745
808 443 516 802 462 418 436 558 764 726 247 61 0 15 0 31 28 36 167 288 498 543 600 718 1006 722 1570 1501 1663 1439 1179 1297 1353 1322 1173 978 991 1221 975 733 533 561 357
726 324 274 371 202 227 418 670 1124 580 283 148 31 73 55 8 0 0 36 291 556 830 982 883 722 956 771 897 555 1317 1133 1207 1074 1185 1254 868 1009 1178 764 425 389 334 200
663 475 42 49 6 252 361 691 1337 938 552 504 168 88 39 0 0 0 0 87 337 587 924 954 729 238 132 31 510 878 957 939 1179 1639 980 948 1466 822 412 284 312 283 146
192 131 196 0 0 142 328 752 694 872 625 582 666 240 202 122 18 0 0 11 114 419 803 437 876 662 507 340 915 547 468 1016 1665 1756 1493 1173 727 413 262 196 166 136 81
403 955 450 0 0 232 398 643 232 334 685 1053 622 441 212 213 12 0 0 0 9 92 305 1075 1036 635 35 712 436 130 179 525 1299 1403 977 723 540 387 256 124 67 40 36
1164 913 534 268 0 61 487 709 0 161 543 827 554 26 13 0 101 15 0 0 47 1 0 398 418 357 781 510 160 7 19 166 455 731 819 645 509 407 289 140 53 23 14
1021 1162 755 401 8 0 62 637 774 378 440 472 854 205 29 14 0 37 0 0 64 17 4 20 220 832 516 147 0 0 0 0 37 81 207 331 404 375 238 81 17 3 3
601 1010 872 507 218 0 0 0 653 973 429 0 604 1135 562 556 368 206 133 135 153 85 101 22 234 425 386 76 0 0 0 0 0 0 0 0 0 1 2 2 3 3 3
496 705 813 686 535 332 334 211 847 952 856 960 888 862 1165 907 606 296 297 301 267 160 101 4 0 2 212 21 0 0 0 0 0 0 0 0 0 0 0 0 0 0 1
447 557 517 791 730 736 771 738 868 824 1081 1112 873 932 1049 906 812 629 521 437 346 268 154 101 0 292 119 0 0 0 0 0 0 0 0 0 0 0 0 0 0 0 1
456 498 348 792 794 903 877 680 598 829 797 874 765 921 838 838 799 664 414 275 296 210 91 79 38 16 0 0 0 0 0 0 0 0 0 0 0 0 0 0 0 0 0
474 548 512 519 587 798 864 883 753 483 466 607 635 739 850 534 527 589 269 75 167 180 175 153 53 0 0 0 0 0 0 0 0 0 0 0 0 0 0 0 0 0 0
576 571 645 654 524 567 715 722 813 834 804 633 646 706 740 521 520 600 561 423 512 203 160 162 428 55 0 0 0 0 0 0 0 0 0 0 0 0 0 0 0 0 0
519 518 653 532 620 702 556 684 794 816 726 791 683 485 473 544 460 654 729 530 410 304 198 93 208 106 0 0 0 0 0 0 0 0 0 0 0 0 0 0 0 0 0
446 534 545 510 443 459 531 552 541 697 793 713 681 635 648 520 442 457 554 441 457 430 212 126 84 194 9 0 0 0 0 0 0 0 0 0 0 0 0 0 0 0 0
333 328 647 603 542 471 388 452 595 689 751 743 854 897 770 688 597 539 392 344 365 458 339 309 178 109 69 0 0 0 0 0 0 0 0 0 0 0 0 0 0 0 0
434 357 330 526 707 617 611 553 632 806 689 773 876 885 838 875 784 722 553 509 321 269 345 277 236 137 44 0 0 0 0 0 0 0 0 0 0 0 0 0 0 0 0
358 384 395 498 618 776 802 766 866 853 846 913 848 534 727 791 744 535 365 317 345 306 214 168 175 146 97 76 8 0 0 0 0 0 0 0 0 0 0 0 0 0 0
360 402 457 458 540 602 604 658 606 630 756 638 575 549 670 658 544 420 155 42 21 28 124 206 216 157 127 66 31 12 0 0 0 0 0 0 0 0 0 0 0 0 0
209 315 395 526 488 443 438 462 515 576 626 554 609 663 660 607 489 325 97 0 0 0 0 0 0 0 0 0 0 0 0 0 0 0 0 0 0 0 0 0 0 0 0
194 303 288 273 331 327 126 297 430 473 410 370 335 234 226 421 379 208 179 18 0 0 0 0 0 0 0 0 0 0 0 0 0 0 0 0 0 0 0 0 0 0 0
128 151 114 76 87 13 0 0 10 197 257 214 37 4 1 18 34 27 86 0 0 0 0 0 0 0 0 0 0 0 0 0 0 0 0 0 0 0 0 0 0 0 0

GFSMA_con_mlcape_150.txt.gz
CAPE
381 223 102 84 236 399 455 493 523 541 469 460 459 540 631 621 1 0 0 6 162 583 691 1108 1448 1678 1961 2222 1844 1846 1479 1390 1454 1584 1625 1584 1612 1581 1465 1319 1310 1321 1264
476 204 415 263 425 573 489 478 551 530 478 273 0 19 352 272 0 0 0 0 23 108 538 842 1076 1088 1637 1884 1630 1551 1319 1350 1507 1499 1370 1357 1269 1209 1445 1565 1399 1155 909
502 681 605 394 717 813 733 525 363 571 507 159 0 0 207 58 0 0 0 0 0 14 100 353 657 719 1455 1537 1626 1341 1120 1271 1385 1439 1444 1514 1378 1292 1391 1315 1030 781 968
991 658 478 813 796 636 638 605 567 582 263 38 27 1 18 0 16 57 50 101 234 222 193 392 629 604 1364 1685 1690 1245 1098 1209 1328 1349 1159 1076 1145 1259 1094 944 735 726 488
821 481 693 776 398 380 412 511 683 618 149 60 26 31 18 17 112 79 189 223 495 688 514 545 839 972 975 1304 1355 1501 1268 1335 1330 1313 1237 977 987 1140 903 653 525 378 196
668 358 435 625 188 188 345 776 849 336 188 129 57 77 76 8 0 17 64 269 439 795 1008 745 895 1252 798 294 606 1186 1170 1378 1638 1597 882 807 1383 890 535 361 317 276 177
620 293 203 152 82 207 376 699 1035 595 449 214 79 88 74 0 0 0 0 63 232 525 879 940 864 193 90 896 973 750 800 1201 1559 1737 1574 1388 752 359 225 260 267 226 101
578 416 68 8 4 90 293 646 821 612 412 517 466 129 207 193 76 9 0 4 116 368 724 793 769 702 267 952 606 445 332 792 1363 1121 865 600 337 224 176 120 79 58 56
307 450 157 0 0 141 251 572 301 497 643 648 497 370 193 185 87 2 9 0 1 41 214 985 909 453 346 687 292 176 145 377 862 1088 877 607 427 267 140 87 27 9 16
639 784 638 149 0 35 307 494 0 23 618 736 282 33 18 2 106 121 0 0 28 0 0 449 464 426 713 256 127 11 6 42 190 380 456 429 391 311 172 57 22 9 17
207 1189 739 447 59 0 162 701 554 340 461 637 714 156 8 10 0 82 1 29 74 17 0 15 211 738 395 73 0 0 0 0 0 10 79 176 232 221 108 35 5 3 3
247 876 941 568 200 9 0 0 211 714 98 0 801 1049 480 555 409 233 241 190 164 77 61 7 282 590 215 99 0 0 0 0 0 0 1 1 0 1 2 2 1 3 3
380 414 846 676 438 237 0 4 0 720 696 485 671 794 1117 841 527 302 379 267 253 181 103 4 0 0 210 3 0 0 0 0 0 0 0 0 0 0 0 0 0 0 1
386 352 583 605 562 481 405 580 723 769 771 755 780 738 1093 893 748 571 540 467 334 264 173 103 0 76 21 0 0 0 0 0 0 0 0 0 0 0 0 0 0 0 0
379 465 393 461 570 567 660 727 590 692 699 819 839 729 811 756 831 742 488 275 289 283 231 84 27 56 61 0 0 0 0 0 0 0 0 0 0 0 0 0 0 0 0
350 366 398 340 408 568 668 782 626 543 447 399 464 597 702 694 520 586 484 278 95 153 179 66 91 24 0 0 0 0 0 0 0 0 0 0 0 0 0 0 0 0 0
393 380 401 397 393 440 433 625 709 736 734 707 586 582 593 620 576 499 478 391 369 284 206 120 335 74 0 0 0 0 0 0 0 0 0 0 0 0 0 0 0 0 0
499 425 465 514 524 495 494 446 537 653 603 614 640 604 516 499 514 517 579 604 558 415 301 189 146 139 0 0 0 0 0 0 0 0 0 0 0 0 0 0 0 0 0
358 480 399 393 394 400 477 482 526 545 520 549 521 573 598 483 462 455 398 492 536 439 333 290 179 156 6 0 0 0 0 0 0 0 0 0 0 0 0 0 0 0 0
269 266 455 488 428 378 381 456 537 531 485 593 680 651 683 723 670 576 548 505 387 315 378 450 334 188 92 0 0 0 0 0 0 0 0 0 0 0 0 0 0 0 0
324 300 310 402 540 460 484 466 432 419 441 554 699 763 816 861 739 758 763 682 463 398 361 336 378 270 171 12 0 0 0 0 0 0 0 0 0 0 0 0 0 0 0
420 393 340 354 295 385 477 471 533 613 594 706 721 735 779 759 736 714 681 583 502 434 358 278 268 206 180 69 0 0 0 0 0 0 0 0 0 0 0 0 0 0 0
399 339 259 324 358 377 355 398 456 481 575 810 836 811 706 650 618 678 396 200 35 24 99 269 300 275 207 129 63 5 0 0 0 0 0 0 0 0 0 0 0 0 0
230 272 261 337 402 422 336 339 304 358 480 638 692 612 620 711 662 634 315 110 5 0 0 0 0 1 0 0 0 12 8 1 1 0 0 0 0 0 0 0 0 0 0
68 206 251 227 291 327 35 8 70 411 504 497 453 379 349 381 420 289 340 167 6 0 0 0 0 0 0 0 0 0 0 0 0 1 0 0 0 0 0 0 0 0 0
6 76 27 27 51 0 0 0 0 110 326 282 215 34 0 0 0 0 97 108 56 0 0 0 0 0 0 0 0 0 0 0 0 0 0 0 0 0 0 0 0 0 0